Regional Weather Roundup
Issued by NWS Charleston, WV

Home | Current Version | Previous Version | Graphics & Text | Print | Product List | Glossary On
Versions: 1 2 3 4 5 6 7 8 9 10 11 12 13 14 15 16 17 18 19 20 21 22 23 24 25 26 27 28 29 30 31 32 33 34 35 36 37 38 39 40 41 42 43 44 45 46 47 48 49 50
000
ASUS41 KRLX 240710
RWRRLX
West Virginia Regional Weather Roundup
National Weather Service Charleston WV
200 AM EST MON NOV 24 2014

Note: "fair" indicates few or no clouds below 12,000 feet with no
significant weather and/or obstructions to visibility.

WVZ003-240800-
Northern Panhandle of West Virginia

CITY           SKY/WX    TMP DP  RH WIND       PRES   REMARKS
WHEELING       CLOUDY    59  52  77 S18G29    29.38F
$$

WVZ009-240800-
Northwest West Virginia

CITY           SKY/WX    TMP DP  RH WIND       PRES   REMARKS
PARKERSBURG    CLOUDY    62  50  64 S17G24    29.41F
$$

WVZ006-240800-
Western West Virginia

CITY           SKY/WX    TMP DP  RH WIND       PRES   REMARKS
HUNTINGTON     LGT RAIN  61  54  77 S15G30    29.43R
$$

WVZ015-240800-
West Central West Virginia

CITY           SKY/WX    TMP DP  RH WIND       PRES   REMARKS
CHARLESTON     CLOUDY    65  49  56 S18G28    29.46R
$$

WVZ022-031-240800-
North Central West Virginia

CITY           SKY/WX    TMP DP  RH WIND       PRES   REMARKS
CLARKSBURG     MOCLDY    64  50  60 S16G26    29.46F
MORGANTOWN     MOCLDY    63  48  58 S14G25    29.46F
$$

WVZ025-035-042-045-240800-
Southern West Virginia

CITY           SKY/WX    TMP DP  RH WIND       PRES   REMARKS
BECKLEY        MOCLDY    57  47  69 S13G21    29.58S
LOGAN          CLOUDY    63  50  63 S18G29    29.51S
BLUEFIELD      CLOUDY    58  47  66 S9G20     29.63R
LEWISBURG      CLOUDY    58  49  73 SW7       29.62R
$$

WVZ047-240800-
Northern Mountains of West Virginia

CITY           SKY/WX    TMP DP  RH WIND       PRES   REMARKS
ELKINS         MOCLDY    60  50  69 S16G24    29.53F
$$

WVZ052-240800-
Eastern Panhandle of West Virginia

CITY           SKY/WX    TMP DP  RH WIND       PRES   REMARKS
MARTINSBURG    CLOUDY    53  50  89 S7        29.63F FOG
PETERSBURG     CLOUDY    51  51 100 CALM      29.60F FOG
$$



USA.gov is the U.S. government's official web portal to all federal, state and local government web resources and services.